Location: Newark
(20.0000°S, 47.0000°E)
Time: 13:37:51
(UTC+00:00)

N. Korean satellite - Pass Details

Date: 16 August 2020
Orbit: 455 x 503 km, 97.2° (Epoch: 20 September)

Event Time Altitude Azimuth Distance (km) Brightness Sun altitude
Rises 02:39:45 0° 339° (NNW) 2,572 10.1 -8.4°
Reaches altitude 10° 02:42:25 10° 317° (NW) 1,703 9.0 -7.8°
Maximum altitude 02:44:47 16° 277° (W) 1,358 8.2 -7.3°
Drops below altitude 10° 02:47:11 10° 237° (WSW) 1,722 8.8 -6.7°
Sets 02:49:55 0° 215° (SW) 2,615 9.8 -6.1°
